Weather Roundup
Issued by NWS Chicago, IL

Home | Current Version | Previous Version | Graphics & Text | Print | Product List | Glossary On
Versions: 1 2 3 4 5 6 7 8 9 10 11 12 13 14 15 16 17 18 19 20 21 22 23 24 25 26 27 28 29 30 31 32 33 34 35 36 37 38 39 40 41 42 43 44 45 46 47 48 49 50
000
NZUS59 KLOT 261708
HRRLOT

CHICAGO AREA WEATHER ROUNDUP
NATIONAL WEATHER SERVICE CHICAGO/ROMEOVILLE IL
1200 PM CDT SUN MAR 26 2017

NOTE: "FAIR" INDICATES FEW OR NO CLOUDS BELOW 12,000 FEET WITH NO
SIGNIFICANT WEATHER AND/OR OBSTRUCTIONS TO VISIBILITY.

* THESE STATIONS ARE NOT UNDER NWS QUALITY CONTROL. THEY ALSO MAY NOT
  REPORT WEATHER SUCH AS PRECIPITATION OR FOG.

ILZ005-006-012>014-019>023-261800-
NORTHEAST ILLINOIS

CITY           SKY/WX    TMP DP  RH WIND       PRES   REMARKS
OHARE          CLOUDY    58  54  86 CALM      29.82F
MIDWAY         CLOUDY    59  55  87 SW7       29.83F
AURORA         CLOUDY    59  54  83 S8        29.83F
LANSING*       CLOUDY    60  58  94 S8        29.84F
JOLIET*        CLOUDY    61  55  81 SW12      29.84S
WAUKEGAN       FOG       46  46 100 E3        29.83F VSB 1/4
DUPAGE AIRPORT CLOUDY    58  55  90 S8        29.82F
WHEELING       CLOUDY    57  57 100 S6        29.84F
KANKAKEE*      CLOUDY    62  55  80 SW15      29.85F
MORRIS*        CLOUDY    59  52  78 S13       29.82F
LEWIS AIRPORT* CLOUDY    58  56  91 SW12      29.83F
$$

WIZ051-052-058>065-066-070>072-261800-
SOUTHEAST WISCONSIN

CITY           SKY/WX    TMP DP  RH WIND       PRES   REMARKS
MILWAUKEE      LGT RAIN  42  41  96 N3        29.85F VSB 1/4
KENOSHA*       LGT RAIN  45  45 100 E5        29.84F FOG
RACINE*        LGT RAIN  43  42  97 CALM      29.86F FOG
WAUKESHA       LGT RAIN  39  39 100 NE6       29.86F FOG
WEST BEND      LGT RAIN  41  41 100 E7        29.86F
$$

INZ001>003-010>013-019-020-261800-
NORTHWEST INDIANA

CITY           SKY/WX    TMP DP  RH WIND       PRES   REMARKS
GARY*          PTSUNNY  N/A N/A N/A S7        29.85F
MICHIGAN CITY* NOT AVBL
RENSSELAER*    NOT AVBL
VALPARAISO     LGT RAIN  57  55  93 SW9       29.86S FOG
$$

LMZ740>746-261800-
SOUTHERN LAKE MICHIGAN

STATION/POSITION TIME  SKY/WX   TEMP WIND        PRES    VSBY
                                AIR  DIR/SP/G
                 (UTC)          (F)  (DEG/KT/KT) (MB)    (MI)
HARRISON CRIB    1640            49  170/  9/ 10   N/A
BURNHAM HARBOR   1700            47   CALM  /  1   N/A
CALUMET HARBOR   1642            58  190/  5/  8 1009.9F
BURNS HARBOR     1640            56  180/ 10/ 13 1011.5F
MICHIGAN CITY    1640            56  160/  5/  6   N/A
$$

ABBREVIATIONS USED IN REMARKS
   TC - TEMPERATURE IN CELSIUS
  WCI - WIND CHILL INDEX
   HX - HEAT INDEX
  VSB - VISIBILITY
$$




USA.gov is the U.S. government's official web portal to all federal, state and local government web resources and services.